Theta_e
349 356 355 348 332 327 315 317 325 322 324 330 332 327 328 332 324 321 343 345 347 347 354 357 361 360 360 360 361 361 361 361 361 361 360 360 360 361 361 361 361 360 359 359 359 359 360 361 361
352 349 346 337 326 314 314 322 320 324 329 333 331 331 330 327 336 337 341 347 348 349 350 354 361 361 360 361 361 361 361 361 361 362 361 361 360 360 359 360 360 360 359 359 358 358 358 359 359
349 346 337 329 324 314 315 321 325 329 333 333 331 335 332 331 338 341 345 349 349 349 354 361 361 361 361 362 361 361 360 361 361 361 361 361 360 359 360 360 360 360 360 360 359 358 357 355 359
345 345 338 321 316 324 322 324 328 329 334 336 335 328 336 342 341 344 348 349 348 349 353 361 362 362 362 361 362 361 361 361 360 362 361 362 361 362 361 360 358 357 360 361 360 358 357 359 360
349 339 321 321 321 323 327 329 331 328 330 332 332 328 332 341 345 346 348 348 348 348 352 358 362 362 362 362 362 361 362 362 362 362 362 361 361 361 361 359 358 360 362 362 361 359 361 362 360
337 337 320 316 321 325 329 331 331 330 332 333 331 331 334 343 344 345 347 348 349 350 351 356 362 362 362 361 362 361 360 362 361 361 362 361 361 360 362 360 360 361 361 362 362 361 358 359 359
334 333 319 319 322 325 328 334 330 329 329 328 334 329 335 339 344 345 346 349 350 352 352 355 357 362 361 361 362 361 361 361 361 361 361 362 361 360 361 361 360 360 360 361 361 361 360 357 357
340 332 322 320 321 323 331 332 334 330 329 336 337 328 329 339 344 345 345 346 349 352 353 355 359 354 355 360 361 362 361 361 362 361 359 361 361 359 359 363 360 360 359 359 358 360 361 357 356
341 326 321 317 320 327 333 330 336 338 334 333 336 335 338 342 344 342 343 343 345 347 351 352 352 356 357 358 360 361 361 360 359 358 359 360 356 358 359 363 360 358 358 357 358 358 362 359 358
332 327 323 328 326 328 330 330 331 330 330 330 333 337 340 342 341 340 340 340 342 343 346 350 349 351 355 351 358 357 359 354 354 357 358 356 358 360 355 360 361 360 360 360 361 362 362 361 355
331 326 330 330 328 331 330 330 334 329 327 330 330 335 339 340 340 339 340 341 341 344 343 344 354 358 355 358 354 352 349 352 357 361 363 358 356 356 352 354 357 359 362 358 360 360 360 354 351
326 332 332 332 331 327 328 332 327 329 330 334 336 338 339 337 337 338 339 342 343 342 343 347 352 361 359 353 354 352 347 349 354 357 361 359 355 355 358 352 352 362 353 357 355 354 357 351 349
328 331 333 333 331 331 331 331 329 329 332 336 338 338 336 336 336 338 340 343 344 342 344 347 351 358 358 359 355 354 347 351 350 354 359 356 353 357 361 360 357 357 355 353 353 353 352 349 348
330 331 331 333 332 329 327 328 332 330 333 334 335 334 335 335 335 338 339 341 343 343 345 348 350 359 356 361 357 352 350 353 357 352 355 361 356 358 355 354 356 359 354 354 353 354 352 352 350
332 325 330 329 331 327 327 320 323 331 332 330 331 333 335 336 337 339 340 341 344 344 346 347 349 353 355 355 354 357 349 353 353 352 359 360 360 361 365 355 362 357 357 360 357 356 354 350 351
325 325 321 329 330 329 324 312 325 331 330 328 329 332 334 337 337 340 341 343 345 345 347 349 347 350 353 354 356 355 355 355 359 352 354 360 361 362 365 362 355 358 358 353 351 350 349 349 349
320 314 317 323 331 325 321 315 324 334 334 328 330 333 332 336 337 341 342 344 344 348 348 348 349 349 351 356 357 360 359 355 359 358 355 361 359 362 365 355 359 371 357 352 350 349 351 353 348
308 315 319 320 324 323 319 317 323 327 331 329 330 331 332 334 336 340 343 345 345 347 350 350 349 353 355 356 363 357 351 360 356 356 355 360 359 361 366 359 364 365 356 353 352 357 356 353 352
315 316 315 323 327 323 318 318 320 325 328 327 328 330 331 333 338 341 342 344 345 347 349 354 355 357 354 352 350 350 347 356 359 357 360 361 360 361 365 358 362 363 363 364 362 357 360 350 356
315 314 315 320 326 324 321 319 321 323 324 327 329 329 331 335 335 339 342 343 343 348 350 354 355 357 356 352 360 356 356 350 354 358 360 360 359 360 361 365 362 357 361 366 362 365 354 351 355
312 311 313 313 320 321 320 317 319 323 325 327 330 333 333 332 336 337 340 343 344 345 349 352 355 357 357 363 357 359 359 357 351 357 355 357 358 358 362 361 366 368 361 359 366 365 363 352 354
309 314 313 313 314 306 319 307 319 322 321 324 326 328 334 337 336 337 339 339 342 345 348 353 356 357 356 362 358 359 350 349 350 352 356 357 359 359 359 361 361 366 363 369 363 361 365 366 354
311 317 314 315 313 314 312 309 313 324 319 321 327 331 331 333 334 335 337 342 343 346 346 350 357 358 359 359 359 355 356 353 350 354 361 365 363 361 358 361 362 361 358 365 367 367 369 362 359
315 313 315 315 314 306 310 310 311 319 322 322 327 332 332 333 335 338 339 343 344 346 346 349 354 357 358 357 357 360 360 350 349 355 353 351 355 356 361 359 363 363 363 362 363 366 365 367 365
311 311 304 303 304 304 313 308 312 321 326 328 327 330 335 337 334 334 337 341 344 345 347 347 355 358 357 356 355 356 358 360 355 356 351 357 349 350 362 362 363 359 364 363 364 367 366 363 363
310 310 304 295 301 302 313 307 310 320 326 329 330 331 334 335 336 334 339 339 344 346 348 349 353 356 357 356 357 361 359 352 353 357 352 349 352 350 368 362 360 360 360 361 363 359 358 367 359
311 307 313 305 309 306 307 312 318 321 324 326 327 331 332 334 336 333 338 339 342 346 348 350 353 356 357 355 361 357 358 357 357 365 361 353 363 358 358 357 359 360 362 362 364 357 361 360 363
313 316 306 307 300 299 304 307 307 317 320 323 324 325 332 336 336 335 338 343 343 345 348 351 353 356 357 356 356 355 356 358 359 360 359 362 362 358 361 360 357 359 361 362 366 363 365 362 358
310 308 311 310 308 300 301 304 319 319 324 324 324 325 329 335 335 337 338 342 347 345 348 349 352 355 355 355 356 358 356 357 357 356 358 359 362 362 361 362 361 361 360 362 366 365 363 361 362
312 307 312 305 306 307 301 303 326 327 327 328 326 328 333 335 335 335 338 340 342 348 349 350 351 353 355 356 357 355 357 358 355 356 357 359 361 364 363 364 362 360 360 362 362 359 358 358 357
Wind_Speed
11 14 4 5 6 6 8 14 16 13 13 15 11 17 17 15 9 12 15 15 17 18 16 14 13 13 14 13 13 13 14 14 14 14 14 14 14 15 15 14 14 13 14 14 13 12 11 14 13
12 3 4 4 5 9 8 12 13 15 15 12 9 11 20 20 20 19 16 14 18 13 16 16 12 13 14 14 14 14 14 14 15 13 13 14 14 16 16 17 16 16 16 17 18 18 16 11 11
4 4 3 3 5 4 12 13 14 16 10 14 7 16 10 18 14 18 16 15 20 13 18 15 13 14 14 14 13 15 13 14 13 13 14 15 16 17 17 18 18 18 17 19 19 19 17 7 9
4 3 1 4 11 8 14 14 15 15 13 13 15 13 21 13 19 18 16 17 14 17 18 15 13 14 15 14 14 14 14 13 13 13 13 15 15 16 17 17 17 16 15 17 17 15 13 11 11
7 2 2 1 7 13 9 13 15 7 9 9 12 20 16 15 20 17 15 17 12 16 17 15 13 14 15 15 14 14 13 13 14 13 13 14 15 15 16 15 14 16 16 16 15 15 12 13 11
2 6 5 2 9 7 8 9 9 8 11 11 19 17 17 18 17 15 15 22 14 10 18 16 13 13 14 14 14 14 13 13 14 13 14 14 13 14 14 14 13 15 15 14 14 13 11 10 9
5 3 2 5 11 8 5 8 5 7 8 13 14 18 16 16 16 14 13 18 19 7 16 14 14 14 13 12 14 13 13 13 13 13 13 13 13 13 13 12 11 12 13 13 11 9 9 9 8
7 3 8 3 9 9 2 4 6 3 12 14 15 11 18 19 16 14 12 15 19 17 10 9 14 13 13 12 13 14 14 13 13 11 12 14 13 13 13 11 9 9 9 10 8 7 9 8 8
5 4 4 7 2 8 1 9 6 5 9 6 10 19 20 19 17 16 13 13 10 13 16 16 10 5 12 12 11 13 14 14 11 10 10 11 11 13 11 11 8 7 8 7 6 6 10 10 8
7 2 4 13 8 3 2 3 9 10 9 6 10 22 21 18 16 15 14 13 11 9 9 14 12 10 11 12 7 9 11 9 7 7 7 8 7 6 11 9 9 9 10 10 10 10 12 15 9
6 4 7 15 10 5 2 8 9 9 10 11 18 20 20 18 15 14 12 12 11 8 6 7 16 2 3 12 6 6 7 7 7 3 5 9 7 9 9 7 8 9 14 8 10 9 10 8 2
7 7 8 11 13 10 3 7 2 4 9 14 17 20 20 18 16 15 13 13 13 7 6 11 11 3 8 7 8 4 7 8 7 7 7 6 3 2 3 5 4 4 6 3 5 5 6 5 4
13 5 12 13 16 6 6 9 6 7 5 8 18 20 19 16 15 12 12 13 13 10 9 10 9 6 3 8 5 5 6 5 9 6 4 3 8 4 3 2 4 5 4 7 6 6 5 7 8
2 2 14 10 11 4 4 6 11 5 12 17 18 19 16 14 13 12 11 13 12 11 13 10 11 12 6 4 3 5 4 7 2 7 5 5 3 3 9 5 5 5 3 8 7 5 6 7 8
10 9 11 11 11 7 7 4 3 12 14 16 16 16 12 10 11 11 10 12 11 10 13 12 11 11 9 9 6 5 7 8 5 8 4 4 3 2 8 8 5 6 5 4 5 4 4 6 7
11 11 10 9 5 7 3 6 10 14 8 16 12 11 12 12 12 10 12 12 12 11 12 11 10 12 9 9 9 3 3 5 3 6 8 5 4 2 5 3 4 3 3 5 4 4 5 5 6
11 4 6 10 5 8 5 4 10 15 11 10 15 16 14 12 10 11 13 12 12 12 11 11 10 12 10 9 3 4 5 3 2 1 5 6 4 0 3 1 5 7 5 5 4 3 4 0 6
5 1 8 11 8 9 13 6 5 11 14 5 11 14 14 15 13 13 14 13 13 12 12 10 10 11 10 9 5 3 7 3 5 2 7 6 5 2 6 3 5 7 4 6 5 1 3 2 4
10 8 12 12 11 14 7 5 12 7 13 11 6 14 16 16 12 14 14 15 15 12 10 8 5 11 8 8 8 6 7 4 4 5 7 4 4 3 4 3 6 14 7 9 5 5 5 4 2
12 4 11 9 13 12 10 7 12 9 9 11 17 9 12 17 4 15 15 12 15 12 10 10 10 9 9 7 3 2 2 7 2 6 6 5 5 3 3 8 5 8 9 6 2 4 3 1 1
11 3 7 13 7 4 10 10 16 13 10 15 21 14 13 11 22 13 15 16 11 16 13 13 13 13 11 5 4 3 4 3 4 7 7 6 5 5 2 4 8 6 3 10 1 2 3 1 1
15 4 2 2 13 6 19 1 17 19 18 17 22 12 20 29 20 18 18 13 14 12 9 15 13 12 11 10 6 6 6 5 5 7 5 9 5 4 4 2 2 9 7 10 3 4 8 5 3
1 4 7 2 12 12 7 12 13 18 15 18 25 25 15 16 15 19 18 18 15 15 12 15 14 12 11 10 7 10 11 4 5 3 7 3 6 5 4 4 2 2 6 5 6 5 6 7 8
10 5 7 8 12 13 4 6 10 15 19 20 16 23 19 18 16 18 7 17 16 16 12 14 15 13 12 11 8 10 9 6 6 5 7 7 8 7 5 6 3 3 4 1 2 2 1 6 7
13 17 11 11 10 3 4 8 2 11 18 23 25 25 22 21 16 11 16 15 14 15 19 11 17 14 14 12 11 9 8 7 4 5 7 6 7 7 10 5 5 5 4 2 4 2 3 3 5
12 19 10 1 6 7 8 3 4 4 9 18 18 22 24 21 17 8 20 13 19 16 16 15 17 16 14 13 12 9 9 7 7 7 7 7 4 6 12 7 6 7 3 4 3 5 6 4 3
5 15 19 7 13 5 10 4 8 5 10 20 18 21 20 22 21 12 18 19 15 13 16 15 16 15 16 16 12 11 9 10 7 6 8 8 5 2 9 6 7 6 5 5 4 6 5 4 4
13 15 10 7 5 8 3 5 11 6 6 11 11 10 13 21 21 21 18 17 13 15 16 15 16 15 15 14 13 13 12 11 10 4 5 6 5 6 1 6 8 8 8 8 6 7 8 6 6
5 14 20 1 7 2 6 8 9 8 5 10 6 6 11 15 25 23 11 18 14 12 14 16 15 16 15 14 13 12 12 13 11 9 9 9 8 4 6 7 7 7 7 7 5 9 9 7 5
13 15 28 13 19 5 11 8 9 4 5 9 9 7 3 7 22 15 17 17 18 9 15 16 16 15 15 14 13 13 12 11 12 11 11 10 10 8 9 7 9 9 10 8 9 10 10 9 10
Wind_Direction
218 214 266 262 241 217 104 99 100 114 89 76 42 57 67 49 55 90 116 108 104 111 130 119 119 118 120 123 113 99 96 91 91 90 93 94 97 98 102 101 96 95 93 84 80 93 103 107 107
247 334 259 263 250 130 105 116 111 95 93 85 108 73 71 75 91 106 107 121 117 133 119 110 112 113 114 115 102 101 93 89 91 94 91 95 94 92 95 95 95 94 90 87 81 76 78 82 103
220 44 268 309 86 318 113 123 103 103 129 89 73 41 53 103 116 108 116 121 94 89 92 106 115 115 110 102 104 97 94 93 90 91 89 87 95 95 96 92 89 86 86 89 84 84 77 72 101
167 168 252 27 293 85 115 110 118 128 70 78 115 81 94 80 104 115 136 108 123 93 100 112 113 108 112 107 105 101 99 95 87 92 94 94 97 93 92 92 88 87 88 94 97 103 116 121 103
206 326 335 230 81 75 88 117 117 124 104 93 94 111 99 99 111 125 128 104 111 122 121 114 112 111 109 108 106 101 98 91 95 91 87 91 91 95 94 94 97 90 88 93 97 91 95 92 97
315 228 171 180 93 111 96 102 122 89 94 101 106 118 105 118 127 137 131 122 118 122 109 118 115 113 109 109 104 97 93 92 95 92 92 89 90 96 98 98 96 93 96 100 89 89 96 105 105
203 228 113 168 134 107 57 122 107 112 121 116 129 119 129 138 131 133 123 121 112 89 106 129 123 112 109 106 103 102 104 98 97 92 98 97 99 99 98 97 95 89 83 89 92 98 112 111 106
290 292 148 154 175 123 126 73 55 58 107 120 126 137 149 130 142 129 133 118 122 112 99 100 125 136 138 117 104 104 102 103 96 116 123 126 116 116 120 124 99 95 94 93 93 106 134 120 127
156 2 222 155 222 133 173 122 79 27 127 200 124 132 133 141 148 137 137 111 120 137 135 128 154 163 106 111 118 120 127 125 133 151 160 181 125 130 149 84 122 117 112 119 141 150 153 148 152
181 67 181 151 138 122 245 108 117 153 134 135 174 125 134 151 158 149 147 134 144 113 137 139 137 139 141 118 131 135 153 111 98 84 96 88 82 68 106 124 153 165 168 173 188 195 182 191 156
30 60 95 111 135 281 50 141 154 148 153 151 127 144 148 161 157 154 153 140 117 156 125 144 100 325 18 93 179 152 120 133 104 53 85 124 148 156 167 158 181 185 187 198 193 195 209 175 65
129 43 78 124 147 218 83 314 133 91 48 147 142 152 159 166 163 162 151 138 123 147 151 106 110 129 96 142 204 112 119 151 136 111 148 159 144 80 12 118 116 102 87 151 80 57 99 122 124
116 121 98 144 153 165 140 18 357 59 120 149 133 158 162 172 165 156 149 132 131 161 138 133 126 97 170 202 109 87 136 157 117 152 27 263 93 148 85 303 90 47 14 126 114 134 120 109 106
85 116 133 137 111 129 117 26 320 128 124 129 151 161 166 170 163 159 155 137 151 167 139 139 153 142 184 88 70 143 168 108 117 106 91 18 91 341 190 326 137 79 99 63 119 139 134 97 109
160 129 90 99 147 114 110 6 299 309 144 149 166 165 155 150 163 158 149 150 164 175 142 152 152 155 165 132 171 208 139 147 138 105 127 83 69 319 321 177 62 83 96 111 124 154 150 108 94
223 194 159 125 159 96 284 177 262 282 192 165 180 158 159 165 166 169 156 157 154 177 153 164 162 155 154 155 203 202 170 135 196 138 147 116 112 293 293 62 56 125 170 130 160 178 120 122 125
199 160 338 114 134 125 53 146 247 292 290 204 183 173 178 157 162 164 158 152 153 136 164 172 153 163 162 149 192 297 83 144 147 26 110 112 138 323 284 344 150 224 135 132 162 143 102 14 143
46 57 111 125 136 133 150 171 262 272 284 272 180 187 172 173 180 168 167 143 167 137 161 178 171 140 183 153 249 219 172 184 137 251 98 166 120 130 306 105 219 315 118 151 88 277 37 43 288
98 132 158 121 145 155 190 219 196 209 262 270 290 280 194 175 178 165 166 162 156 145 162 161 144 147 191 173 188 180 172 158 179 98 115 141 128 121 300 218 179 229 102 81 148 168 223 178 254
245 111 78 110 170 241 170 178 148 153 260 269 266 240 238 183 200 166 155 178 159 144 175 158 148 184 204 189 201 201 132 166 147 129 146 139 158 161 175 301 336 3 103 106 144 328 284 148 258
262 262 176 124 182 231 174 146 166 181 205 254 260 264 303 285 177 146 178 176 186 151 179 175 165 183 199 236 175 104 350 122 174 131 170 173 173 173 89 294 348 301 41 125 175 11 337 279 96
260 52 300 131 244 142 258 23 174 171 193 217 240 260 256 208 243 180 165 190 167 156 187 162 178 177 196 227 158 173 207 197 193 177 161 147 178 186 173 160 333 316 355 63 122 74 329 333 278
267 221 278 259 291 306 134 272 137 159 193 204 223 221 227 260 247 179 176 178 179 158 171 172 175 178 185 205 262 182 221 190 179 138 131 271 157 206 211 176 196 283 326 79 21 24 350 311 327
274 252 259 251 249 248 87 269 132 174 192 187 223 225 221 224 209 193 192 171 170 171 164 180 163 189 184 190 199 222 211 300 186 179 150 195 175 185 214 190 200 219 329 165 234 19 349 4 350
227 234 221 220 209 241 153 280 193 182 165 178 190 206 226 202 238 157 183 187 164 179 161 179 164 186 189 187 193 211 242 238 195 181 215 200 184 189 148 203 200 208 207 293 298 230 325 282 336
217 251 265 42 334 357 228 214 27 89 156 174 178 191 205 222 213 217 157 198 162 186 172 183 166 177 191 190 201 199 210 223 240 190 238 236 233 175 135 176 226 221 236 225 235 255 237 225 254
215 226 268 321 188 302 171 236 144 82 93 140 185 189 191 219 220 198 193 145 180 168 172 186 169 185 190 193 188 197 199 236 236 216 206 247 258 176 159 186 213 240 241 256 269 238 274 262 247
256 324 243 207 219 270 272 176 123 165 179 150 138 224 195 187 222 220 190 167 159 184 174 185 176 185 192 199 191 194 193 208 224 203 217 272 316 251 43 193 215 222 233 239 248 262 219 221 270
203 235 237 309 95 222 336 3 91 122 119 133 121 275 278 193 199 218 192 172 154 189 170 179 182 185 194 198 191 200 200 200 210 222 218 226 245 253 263 257 263 260 245 246 255 278 298 272 227
127 274 272 264 188 142 122 271 269 62 162 137 87 6 317 329 198 198 193 180 174 193 167 180 183 189 195 195 195 196 207 211 207 217 218 215 226 218 236 242 247 242 252 244 235 240 268 233 236